Zurück zum Katalog

COSMOS 2251 DEB

AktivLEO
NORAD 37532·DEBRIS·🇷🇺 Russia

Gestartet Jun 16, 1993 von Plesetsk Cosmodrome

Loading…

Nächste Überflüge (nächste 24 Stunden)

TLE

AktuellSource: Space-Track

Epoche: Sep 14, 2026, 18:15 UTC

1 37532U 93036BNM 26257.76105458  .00000429  00000-0  13635-3 0  9995
2 37532  74.0491  63.9918 0014603  99.5731 274.4531 14.42775853888962

Verfolge COSMOS 2251 DEB in Echtzeit mit AllMySat

Download on the App Store